Regional Weather Roundup
Issued by NWS

Home | Current Version | Previous Version | Graphics & Text | Print | Product List | Glossary On
Versions: 1 2 3 4 5 6 7 8 9 10 11 12 13 14 15 16 17 18 19 20 21 22 23 24 25 26 27 28 29 30 31 32 33 34 35 36 37 38 39 40 41 42 43 44 45 46 47 48 49 50
000
ASUS45 KPSR 271910
RWRAZ

ARIZONA REGIONAL HOURLY WEATHER ROUNDUP
NATIONAL WEATHER SERVICE PHOENIX AZ
1200 PM MST MON APR 27 2015

NOTE: FAIR INDICATES FEW OR NO CLOUDS BELOW 12,000 FEET WITH NO
SIGNIFICANT WEATHER AND/OR OBSTRUCTIONS TO VISIBILITY.

AZZ001>003-036-272000-
NORTHWEST ARIZONA

CITY           SKY/WX    TMP DP  RH WIND       PRES   REMARKS
BULLHEAD CITY  SUNNY     77  27  15 NW24G31   29.98F
KINGMAN        SUNNY     69  28  21 NE9       30.05F
$$

AZZ004>008-015-016-018-272000-
NORTH CENTRAL ARIZONA

CITY           SKY/WX    TMP DP  RH WIND       PRES   REMARKS
GRAND CANYON   SUNNY     55  31  39 NE13      30.15S
WILLIAMS       SUNNY     55  34  44 NE16G26   30.18S
PRESCOTT       SUNNY     64  32  30 NE7       30.06S
FLAGSTAFF      SUNNY     52  34  50 NE20G26   30.12R
PAYSON         MOSUNNY   63  37  39 NW8       30.05S
$$

AZZ009>014-017-272000-
NORTHEAST ARIZONA

CITY           SKY/WX    TMP DP  RH WIND       PRES   REMARKS
WINSLOW        SUNNY     62  38  40 N6        30.07F
SAINT JOHNS    PTSUNNY   58  38  47 NE9       30.07S
WINDOW ROCK    MOSUNNY   57  34  41 E7G17     30.12R
SHOW LOW       CLOUDY    50  37  62 NE12      30.10F
$$

AZZ023-272000-
GREATER PHOENIX AREA

CITY           SKY/WX    TMP DP  RH WIND       PRES   REMARKS
PHOENIX        MOSUNNY   77  38  24 CALM      29.89F
BUCKEYE        SUNNY     77  41  27 SE7       29.91S
GLENDALE       MOSUNNY   79  36  21 E3        29.92F
LUKE AFB       SUNNY     79  37  22 N6        29.89F
DEER VALLEY    SUNNY     76  35  22 SW7       29.90F
SCOTTSDALE     SUNNY     76  40  27 E5        29.92F
MESA-FALCON    MOSUNNY   75  37  25 W8        29.91S
MESA-GATEWAY   MOSUNNY   73  39  29 W5        29.92F
CHANDLER       MOSUNNY   75  37  25 VRB5      29.91F
$$

AZZ027-028-272000-
SOUTHWEST MARICOPA COUNTY AND PINAL COUNTY

CITY           SKY/WX    TMP DP  RH WIND       PRES   REMARKS
CASA GRANDE    SUNNY     75  39  27 CALM      29.90F
GILA BEND      FAIR      79  33  18 NE10      29.89F
$$

AZZ503-504-507>509-272000-
SOUTHEAST ARIZONA

CITY           SKY/WX    TMP DP  RH WIND       PRES   REMARKS
TUCSON         SUNNY     74  36  25 CALM      29.94F
DAVIS-MONTHAN  SUNNY     72  37  28 W6        29.92F
RYAN FIELD       N/A     73  39  29 NW6       29.94F
NOGALES        SUNNY     74  33  22 MISG      29.94S
SIERRA VISTA   MOSUNNY   64  30  27 VRB6      29.98F
DOUGLAS        SUNNY     69  35  28 N9        29.96F
SAFFORD        SUNNY     68  40  35 CALM      29.94F
$$

AZZ020-021-025-026-031-272000-
SOUTHWEST ARIZONA

CITY           SKY/WX    TMP DP  RH WIND       PRES   REMARKS
YUMA           MOSUNNY   84  28  13 N13       29.91F
$$

CAZ031-033-041-043-047-048-061-272000-
SOUTHERN CALIFORNIA

CITY           SKY/WX    TMP DP  RH WIND       PRES   REMARKS
DOWNTOWN L.A.  SUNNY     82  42  24 W8        29.93F
L.A. AIRPORT   MOSUNNY   73  49  42 W12       29.95F
SAN DIEGO      SUNNY     75  46  35 NW7       29.94F
BURBANK        SUNNY     85  19   9 N16G22    29.93F
ONTARIO        SUNNY     82  19   9 NE18G25   29.96S
RIVERSIDE      SUNNY     81  17   9 N14G28    29.96F
PALM SPRINGS   SUNNY     84  13   7 NE9G20    29.98F
EL CENTRO NAS  MOSUNNY   84  23  10 N14       29.96F
IMPERIAL       SUNNY     82  24  12 N14       29.94F
BLYTHE         SUNNY     83  26  12 N16G23    29.93F
NEEDLES        SUNNY     81  23  11 N22G29    29.98F
$$

NVZ020-UTZ003-272000-
SOUTHERN NEVADA-UTAH

CITY           SKY/WX    TMP DP  RH WIND       PRES   REMARKS
LAS VEGAS      SUNNY     73  20  13 N12       30.05F
SALT LAKE CITY MOSUNNY   57  38  48 NW9       30.23F
$$

NMZ009-TXZ055-272000-
NEW MEXICO-WEST TEXAS

CITY           SKY/WX    TMP DP  RH WIND       PRES   REMARKS
ALBUQUERQUE    PTSUNNY   57  35  43 NW12G21   30.05F
EL PASO        PTSUNNY   66  34  30 N10G22    29.94F
$$


........................KEY........................
SKY/WX - SKY CONDITION/WEATHER
TMP    - TEMPERATURE IN FAHRENHEIT
DP     - DEW POINT IN FAHRENHEIT
RH     - RELATIVE HUMIDITY IN PERCENT
WIND   - DIRECTION AND SPEED IN MILES PER HOUR (MPH)
VRB    - VARIABLE WIND DIRECTION
PRES   - MEAN SEA LEVEL PRESSURE IN INCHES OF MERCURY
         F - FALLING PRESSURE   R - RISING PRESSURE
         S - STEADY PRESSURE
VSB    - VISIBILITY IN MILES
HX     - HEAT INDEX IN FAHRENHEIT
WCI    - WIND CHILL INDEX IN FAHRENHEIT
TC     - TEMPERATURE IN CELSIUS WHICH IS ALSO KNOWN AS
         TEMPERATURE IN CENTIGRADE
AFB    - AIR FORCE BASE
         LUKE AFB IS LUKE AIR FORCE BASE
         DAVIS-MONTHAN IS DAVIS-MONTHAN AIR FORCE BASE
NAS    - NAVAL AIR STATION
         EL CENTRO NAS IS EL CENTRO NAVAL AIR STATION
N/A    - NOT AVAILABLE



USA.gov is the U.S. government's official web portal to all federal, state and local government web resources and services.